Aurora, CO

7:06 PM MST on February 09, 2016 (GMT -0700)
Buckley Air Force Base

Weather History for KBKF - February, 2014

Change the Weather History Date:

Wednesday, February 19, 2014

  Actual Average Record
Temperature  
Mean Temperature 42 °F -  
Max Temperature 59 °F 44 °F 64 °F (2011)
Min Temperature 24 °F 22 °F -4 °F (2006)
Degree Days  
Heating Degree Days 22    
Moisture  
Dew Point 22 °F    
Average Humidity 55    
Maximum Humidity 100    
Minimum Humidity 16    
Precipitation  
Precipitation 0.10 in - - ()
Sea Level Pressure  
Sea Level Pressure 29.58 in    
Wind  
Wind Speed 17 mph (NE)    
Max Wind Speed 34 mph    
Max Gust Speed 39 mph    
Visibility 5 miles    
Events Rain , Snow , Thunderstorm    
Averages and records for this station are not official NWS values.
T = Trace of Precipitation, MM = Missing Value Source: NWS Daily Summary

Daily Weather History Graph

Daily Weather History Graph

Search for Another Location

Airport or City:

Trip Planner

Search our weather history database for the weather conditions in past years. The results will help you decide how hot, cold, wet, or windy it might be!

Date:

Astronomy

Feb. 19, 2014 Rise Set
Actual Time 6:46 AM MST 5:40 PM MST
Civil Twilight 6:18 AM MST 6:07 PM MST
Nautical Twilight 5:47 AM MST 6:38 PM MST
Astronomical Twilight 5:16 AM MST 7:10 PM MST
Moon 10:35 PM MST (2/19) 8:54 AM MST (2/19)
Length of Visible Light 11h 48m
Length of Day
10h 53m
Waning Gibbous, 79% of the Moon is Illuminated
Feb 19
Waning Gibbous
Feb 22
Last Quarter
Mar 1
New
Mar 8
First Quarter
Mar 16
Full

Hourly Weather History & Observations

Time (MST) Temp. Windchill Dew Point Humidity Pressure Visibility Wind Dir Wind Speed Gust Speed Precip Events Conditions
12:55 AM 39.2 °F 31.6 °F 23.0 °F 52% 29.77 in 25.0 mi SSW 12.7 mph - N/A   Mostly Cloudy
1:55 AM 39.2 °F 30.2 °F 21.2 °F 49% 29.74 in 25.0 mi SSW 17.3 mph - N/A   Mostly Cloudy
2:55 AM 39.2 °F 29.0 °F 21.2 °F 49% 29.71 in 25.0 mi South 21.9 mph - N/A   Mostly Cloudy
3:55 AM 39.2 °F 28.0 °F 19.4 °F 45% 29.69 in 25.0 mi South 26.5 mph - N/A   Mostly Cloudy
4:55 AM 37.4 °F 26.4 °F 19.4 °F 48% 29.66 in 25.0 mi South 23.0 mph 33.4 mph N/A   Scattered Clouds
5:55 AM 37.4 °F 26.4 °F 17.6 °F 45% 29.69 in 25.0 mi South 23.0 mph 35.7 mph N/A   Mostly Cloudy
6:55 AM 37.4 °F 26.1 °F 17.6 °F 45% 29.68 in 25.0 mi South 24.2 mph 32.2 mph N/A   Mostly Cloudy
7:55 AM 37.4 °F 27.2 °F 17.6 °F 45% 29.68 in 70.0 mi South 19.6 mph - N/A   Mostly Cloudy
8:55 AM 44.6 °F 36.9 °F 17.6 °F 34% 29.64 in 70.0 mi SSW 18.4 mph - N/A   Mostly Cloudy
9:55 AM 51.8 °F - 15.8 °F 24% 29.60 in 70.0 mi SW 10.4 mph - N/A   Scattered Clouds
10:55 AM 55.4 °F - 14.0 °F 20% 29.55 in 70.0 mi SW 4.6 mph - N/A   Scattered Clouds
11:55 AM 59.0 °F - 12.2 °F 16% 29.48 in 70.0 mi North 4.6 mph - N/A   Mostly Cloudy
12:55 PM 59.0 °F - 14.0 °F 17% 29.44 in 70.0 mi North 8.1 mph - N/A   Scattered Clouds
1:55 PM 59.0 °F - 15.8 °F 19% 29.41 in 70.0 mi ENE 5.8 mph - N/A   Scattered Clouds
2:55 PM 59.0 °F - 14.0 °F 17% 29.38 in 70.0 mi NE 4.6 mph - N/A   Mostly Cloudy
3:55 PM 55.4 °F - 17.6 °F 23% 29.37 in 70.0 mi NNE 11.5 mph - N/A   Mostly Cloudy
4:55 PM 53.6 °F - 17.6 °F 24% 29.38 in 70.0 mi NNE 12.7 mph - N/A   Mostly Cloudy
5:55 PM 48.2 °F - 21.2 °F 34% 29.41 in 25.0 mi ESE 6.9 mph - N/A   Overcast
6:55 PM 46.4 °F 41.1 °F 21.2 °F 37% 29.45 in 10.0 mi North 11.5 mph - N/A   Overcast
7:19 PM 46.4 °F 38.3 °F 26.6 °F 46% 29.51 in 7.0 mi NNE 23.0 mph 32.2 mph N/A Rain Light Rain
7:55 PM 41.0 °F 32.5 °F 32.0 °F 70% 29.52 in 7.0 mi NNE 17.3 mph 38.0 mph N/A   Overcast
8:21 PM 39.2 °F 29.6 °F 30.2 °F 70% 29.58 in 7.0 mi NNE 19.6 mph 27.6 mph N/A Thunderstorm Overcast
8:29 PM 39.2 °F 28.0 °F 30.2 °F 70% 29.59 in 2.0 mi NNE 26.5 mph 34.5 mph N/A Thunderstorm Unknown
8:37 PM 37.4 °F 25.9 °F 30.2 °F 75% 29.60 in 1.2 mi North 25.3 mph 39.1 mph N/A Snow , Thunderstorm Light Snow
8:47 PM 32.0 °F 16.7 °F 32.0 °F 100% 29.61 in 1.0 mi North 34.5 mph 36.8 mph N/A Snow Light Snow
8:55 PM 32.0 °F 19.5 °F 32.0 °F 100% 29.58 in 1.0 mi North 21.9 mph 35.7 mph N/A Snow Light Snow
9:05 PM 32.0 °F 18.6 °F 32.0 °F 100% 29.63 in 0.8 mi NNE 25.3 mph 33.4 mph N/A Snow Light Snow
9:55 PM 30.2 °F 18.1 °F 28.4 °F 93% 29.60 in 2.0 mi NE 18.4 mph 25.3 mph N/A Snow Light Snow
10:27 PM 26.6 °F 14.7 °F 26.6 °F 100% 29.68 in 7.0 mi NNE 15.0 mph 27.6 mph N/A Snow Light Snow
10:40 PM 26.6 °F 14.7 °F 26.6 °F 100% 29.69 in 10.0 mi NNE 15.0 mph 29.9 mph N/A   Mostly Cloudy
10:55 PM 26.6 °F 14.3 °F 24.8 °F 93% 29.65 in 10.0 mi NNE 16.1 mph 27.6 mph N/A   Mostly Cloudy
11:55 PM 24.8 °F 15.3 °F 23.0 °F 93% 29.67 in 10.0 mi North 9.2 mph - N/A   Mostly Cloudy